Flag for USA

Past Weather in Oak Harbor, Washington, USA — Yesterday and Last 2 Weeks

Now
55 °F

Mostly cloudy.


Feels Like: 53 °F
Forecast: 61 / 54 °F
Wind: 8 mph from Southwest

Location: Whidbey Island

Current Time: Jul 2, 2020 at 3:15:02 am

Latest Report: Jul 2, 2020 at 1:56 am


Visibility: 10 mi

Pressure: 29.96 "Hg

Humidity: 80%

Dew Point: 49 °F

Location of Oak HarborLocation

Past Weather in Oak Harbor — Graph

°F

Oak Harbor Temperature Yesterday

Maximum temperature yesterday: 61 °F (at 1:56 pm)
Minimum temperature yesterday: 54 °F (at 2:56 am)
Average temperature yesterday: 56 °F

High & Low Weather Summary for the Past Weeks

 TemperatureHumidityPressure
High75 °F (Jun 29, 3:56 pm)93% (Jun 25, 3:25 am)30.34 "Hg (Jun 25, 3:25 am)
Low49 °F (Jun 22, 4:56 am)51% (Jun 26, 9:56 am)29.88 "Hg (Jun 28, 2:56 am)
Average58 °F77%30.07 "Hg
* Reported Jun 17 1:56 am — Jul 2 1:56 am, Oak Harbor. Weather by CustomWeather, © 2020

Note: Actual official high and low records may vary slightly from our data, if they occured in-between our weather recording intervals... More about our weather records

Oak Harbor Weather History for the Previous 24 Hours

Scroll right to see more
 ConditionsComfort  
Time TempWeatherWind HumidityBarometerVisibility
1:56 am
Thu, Jul 2
55 °FMostly cloudy.8 mph80%29.96 "Hg10 mi
12:56 am55 °FMostly cloudy.8 mph80%29.95 "Hg10 mi
11:56 pm
Wed, Jul 1
55 °FMostly cloudy.9 mph80%29.94 "Hg10 mi
10:56 pm55 °FMostly cloudy.9 mph83%29.94 "Hg10 mi
9:56 pm56 °FPartly cloudy.9 mph81%29.94 "Hg10 mi
8:56 pm56 °FCloudy.9 mph81%29.94 "Hg10 mi
8:07 pm56 °FMostly cloudy.8 mph84%29.94 "Hg10 mi
7:36 pm57 °FMostly cloudy.9 mph83%29.94 "Hg10 mi
7:18 pm58 °FMostly cloudy.7 mph84%29.93 "Hg10 mi
5:56 pm60 °FLight rain. Cloudy.7 mph86%29.94 "Hg10 mi
4:56 pm60 °FLight rain. Cloudy.7 mph83%29.94 "Hg9 mi
3:56 pm60 °FLight rain. Mostly cloudy.8 mph80%29.95 "Hg10 mi
2:56 pm60 °FLight rain. Fog.7 mph83%29.95 "Hg6 mi
1:56 pm61 °FBroken clouds.10 mph70%29.96 "Hg10 mi
12:56 pm60 °FOvercast.13 mph75%29.96 "Hg9 mi
11:56 am58 °FMore clouds than sun.16 mph81%29.95 "Hg8 mi
10:56 am57 °FMostly cloudy.15 mph83%29.96 "Hg8 mi
10:12 am56 °FCloudy.8 mph87%29.98 "Hg8 mi
9:56 am56 °FMostly cloudy.9 mph87%29.98 "Hg7 mi
9:33 am56 °FMostly cloudy.8 mph87%29.98 "Hg7 mi
9:04 am55 °FLight rain. Fog.No wind87%29.98 "Hg2 mi
8:56 am55 °FLight rain. Fog.No wind90%29.98 "Hg2 mi
8:38 am55 °FLight rain. Fog.No wind90%29.98 "Hg2 mi
7:56 am55 °FFog.6 mph87%29.97 "Hg5 mi
6:56 am54 °FLight rain. Fog.5 mph86%29.98 "Hg1 mi
5:56 am54 °FLight rain. Overcast.7 mph86%29.98 "Hg8 mi
4:56 am54 °FMostly cloudy.8 mph86%29.98 "Hg10 mi
3:56 am54 °FMostly cloudy.7 mph83%29.98 "Hg10 mi
3:33 am54 °FLight rain. Mostly cloudy.6 mph83%29.99 "Hg7 mi
Weather by CustomWeather, © 2020

See weather overview